Location: Newark
(35.6799°N, 139.7636°E)
Time: 00:22:12
(UTC+00:00)

Courier 1B - Pass Details

Date: 12 December 2019
Orbit: 962 x 1209 km, 28.3° (Epoch: 21 January)

Event Time Altitude Azimuth Distance (km) Brightness Sun altitude
Rises 11:05:58 0° 238° (WSW) 3,835 11.2 -43.4°
Reaches altitude 10° 11:08:50 10° 230° (SW) 2,920 10.4 -44.0°
Enters shadow 11:10:34 18° 222° (SW) 2,414 9.8 -44.3°
